| time (UTC) | temp F | wind direction | speed knots | gust knots | rain 1hr in | rain 24hr in | rain mn in | humidity % | barometer mb |
| 20260507060414 | 45 | 278 | 0.0 | 2.6 | 0.00 | 0.32 | 0.00 | 92 | 1011.3 |
| 20260507055914 | 45 | 0 | 0.0 | 0.0 | 0.00 | 0.32 | 0.00 | 93 | 1011.2 |
| 20260507055413 | 45 | 0 | 0.0 | 2.6 | 0.00 | 0.32 | 0.00 | 93 | 1011.1 |
| 20260507054914 | 45 | 307 | 0.0 | 3.5 | 0.00 | 0.32 | 0.00 | 93 | 1011.2 |
| 20260507054415 | 45 | 0 | 0.0 | 3.5 | 0.00 | 0.32 | 0.00 | 93 | 1011.1 |
| 20260507053851 | 45 | 0 | 0.0 | 0.0 | 0.00 | 0.32 | 0.00 | 93 | 1011.1 |
| 20260507053331 | 45 | 0 | 0.0 | 0.0 | 0.00 | 0.32 | 0.00 | 93 | 1011.0 |
| 20260507052834 | 46 | 290 | 0.0 | 0.0 | 0.00 | 0.32 | 0.00 | 93 | 1011.0 |
| 20260507052317 | 46 | 0 | 0.0 | 0.0 | 0.00 | 0.32 | 0.00 | 93 | 1011.0 |
| 20260507052231 | 45 | 0 | 0.0 | 0.0 | 0.00 | 0.32 | 0.00 | 93 | 1011.1 |
| 20260507051859 | 45 | 0 | 0.0 | 0.0 | 0.00 | 0.32 | 0.00 | 93 | 1011.1 |
| 20260507051029 | 45 | 0 | 0.0 | 0.0 | 0.00 | 0.32 | 0.00 | 93 | 1011.0 |
| 20260507050251 | 45 | 0 | 0.0 | 0.0 | 0.00 | 0.32 | 0.00 | 93 | 1011.1 |
| 20260507045754 | 46 | 0 | 0.0 | 0.0 | 0.00 | 0.32 | 0.00 | 93 | 1011.0 |
| 20260507045250 | 45 | 0 | 0.0 | 0.0 | 0.00 | 0.32 | 0.00 | 93 | 1011.0 |
| 20260507044747 | 45 | 0 | 0.0 | 0.0 | 0.00 | 0.32 | 0.00 | 93 | 1011.0 |
| 20260507044246 | 45 | 0 | 0.0 | 0.0 | 0.00 | 0.32 | 0.00 | 93 | 1011.2 |
| 20260507043743 | 45 | 0 | 0.0 | 0.0 | 0.00 | 0.32 | 0.00 | 93 | 1011.2 |
| 20260507043242 | 45 | 0 | 0.0 | 0.0 | 0.00 | 0.32 | 0.00 | 93 | 1011.1 |
| 20260507042741 | 45 | 0 | 0.0 | 0.0 | 0.00 | 0.32 | 0.00 | 93 | 1011.1 |
| 20260507042233 | 45 | 0 | 0.0 | 0.0 | 0.00 | 0.32 | 0.00 | 93 | 1011.1 |
| 20260507041735 | 45 | 0 | 0.0 | 0.0 | 0.00 | 0.32 | 0.00 | 93 | 1011.0 |
| 20260507041229 | 45 | 0 | 0.0 | 0.0 | 0.00 | 0.32 | 0.00 | 92 | 1010.8 |
| 20260507040950 | 45 | 0 | 0.0 | 0.0 | 0.00 | 0.32 | 0.00 | 92 | 1010.8 |
| 20260507040203 | 45 | 0 | 0.0 | 0.0 | 0.00 | 0.32 | 0.00 | 92 | 1010.6 |
| 20260507035703 | 45 | 0 | 0.0 | 0.0 | 0.00 | 0.32 | 0.32 | 92 | 1010.8 |
| 20260507035201 | 45 | 0 | 0.0 | 0.0 | 0.00 | 0.32 | 0.32 | 92 | 1011.0 |
| 20260507034700 | 45 | 0 | 0.0 | 0.0 | 0.00 | 0.32 | 0.32 | 92 | 1011.0 |
| 20260507034152 | 45 | 0 | 0.0 | 0.0 | 0.00 | 0.32 | 0.32 | 92 | 1010.6 |
| 20260507033652 | 45 | 0 | 0.0 | 0.0 | 0.00 | 0.32 | 0.32 | 92 | 1010.4 |
| 20260507033411 | 45 | 0 | 0.0 | 0.0 | 0.00 | 0.32 | 0.32 | 92 | 1010.8 |
| 20260507032858 | 45 | 0 | 0.0 | 0.0 | 0.00 | 0.32 | 0.32 | 92 | 1010.3 |
| 20260507032736 | 45 | 0 | 0.0 | 0.0 | 0.00 | 0.32 | 0.32 | 92 | 1010.4 |
| 20260507031643 | 45 | 0 | 0.0 | 0.0 | 0.00 | 0.32 | 0.32 | 92 | 1010.8 |
| 20260507031141 | 45 | 0 | 0.0 | 0.0 | 0.00 | 0.32 | 0.32 | 92 | 1011.0 |
| 20260507030640 | 45 | 0 | 0.0 | 0.0 | 0.00 | 0.32 | 0.32 | 92 | 1010.9 |
| 20260507030133 | 45 | 0 | 0.0 | 0.0 | 0.00 | 0.32 | 0.32 | 92 | 1010.8 |
| 20260507025904 | 45 | 0 | 0.0 | 0.0 | 0.00 | 0.32 | 0.32 | 92 | 1010.6 |
| 20260507025613 | 45 | 0 | 0.0 | 0.0 | 0.00 | 0.32 | 0.32 | 92 | 1011.0 |
| 20260507024630 | 45 | 0 | 0.0 | 0.0 | 0.00 | 0.32 | 0.32 | 92 | 1011.3 |
| 20260507024101 | 46 | 0 | 0.0 | 0.0 | 0.00 | 0.32 | 0.32 | 92 | 1011.2 |
| 20260507023534 | 46 | 0 | 0.0 | 0.0 | 0.00 | 0.32 | 0.32 | 92 | 1011.0 |
| 20260507023005 | 46 | 0 | 0.0 | 0.0 | 0.00 | 0.32 | 0.32 | 92 | 1011.2 |
| 20260507022437 | 46 | 0 | 0.0 | 0.0 | 0.00 | 0.32 | 0.32 | 92 | 1010.9 |
| 20260507021911 | 46 | 0 | 0.0 | 0.0 | 0.00 | 0.32 | 0.32 | 92 | 1010.9 |
| 20260507021408 | 46 | 0 | 0.0 | 0.0 | 0.00 | 0.32 | 0.32 | 92 | 1011.4 |
| 20260507020907 | 46 | 0 | 0.0 | 0.0 | 0.00 | 0.32 | 0.32 | 92 | 1011.5 |
| 20260507020402 | 46 | 0 | 0.0 | 0.0 | 0.00 | 0.32 | 0.32 | 92 | 1011.2 |
| 20260507015903 | 46 | 0 | 0.0 | 0.0 | 0.00 | 0.32 | 0.32 | 91 | 1011.5 |
| 20260507015625 | 46 | 0 | 0.0 | 0.0 | 0.00 | 0.32 | 0.32 | 91 | 1011.1 |
| 20260507014858 | 46 | 0 | 0.0 | 0.0 | 0.00 | 0.32 | 0.32 | 91 | 1011.3 |
| 20260507014400 | 46 | 0 | 0.0 | 0.0 | 0.00 | 0.32 | 0.32 | 91 | 1011.4 |
| 20260507013852 | 46 | 0 | 0.0 | 0.0 | 0.00 | 0.32 | 0.32 | 91 | 1011.3 |
| 20260507013619 | 46 | 0 | 0.0 | 0.0 | 0.00 | 0.32 | 0.32 | 91 | 1011.2 |
| 20260507013114 | 46 | 0 | 0.0 | 0.0 | 0.00 | 0.32 | 0.32 | 91 | 1011.3 |
| 20260507012353 | 46 | 0 | 0.0 | 0.0 | 0.00 | 0.32 | 0.32 | 91 | 1011.2 |
| 20260507011850 | 46 | 0 | 0.0 | 0.0 | 0.00 | 0.32 | 0.32 | 91 | 1011.3 |
| 20260507011351 | 46 | 0 | 0.0 | 0.0 | 0.00 | 0.32 | 0.32 | 91 | 1011.2 |
| 20260507011318 | 46 | 0 | 0.0 | 0.0 | 0.00 | 0.32 | 0.32 | 91 | 1011.2 |
| 20260507010258 | 46 | 0 | 0.0 | 0.0 | 0.00 | 0.32 | 0.32 | 91 | 1011.2 |
| 20260507005730 | 46 | 0 | 0.0 | 0.0 | 0.00 | 0.32 | 0.32 | 91 | 1011.0 |
| 20260507005429 | 46 | 0 | 0.0 | 0.0 | 0.00 | 0.32 | 0.32 | 91 | 1011.0 |
| 20260507004701 | 46 | 0 | 0.0 | 0.0 | 0.00 | 0.32 | 0.32 | 91 | 1011.0 |
| 20260507004202 | 46 | 0 | 0.0 | 0.0 | 0.00 | 0.32 | 0.32 | 91 | 1010.9 |
| 20260507003701 | 46 | 0 | 0.0 | 0.0 | 0.00 | 0.32 | 0.32 | 91 | 1010.9 |
| 20260507003158 | 46 | 0 | 0.0 | 0.0 | 0.00 | 0.32 | 0.32 | 91 | 1010.8 |
| 20260507002658 | 46 | 0 | 0.0 | 0.0 | 0.00 | 0.32 | 0.32 | 91 | 1010.9 |
| 20260507002159 | 46 | 0 | 0.0 | 0.0 | 0.00 | 0.32 | 0.32 | 91 | 1010.8 |
| 20260507001658 | 46 | 0 | 0.0 | 0.0 | 0.00 | 0.32 | 0.32 | 91 | 1010.8 |
| 20260507001158 | 46 | 0 | 0.0 | 0.0 | 0.00 | 0.32 | 0.32 | 91 | 1010.6 |
| 20260507000650 | 46 | 0 | 0.0 | 0.0 | 0.00 | 0.32 | 0.32 | 91 | 1010.6 |
| 20260507000149 | 46 | 0 | 0.0 | 0.0 | 0.00 | 0.32 | 0.32 | 91 | 1010.3 |
| 20260506235647 | 46 | 0 | 0.0 | 0.0 | 0.00 | 0.32 | 0.32 | 91 | 1010.4 |
| 20260506235409 | 46 | 0 | 0.0 | 0.0 | 0.00 | 0.32 | 0.32 | 91 | 1010.6 |
| 20260506234620 | 46 | 0 | 0.0 | 0.0 | 0.00 | 0.32 | 0.32 | 91 | 1010.3 |
| 20260506234324 | 46 | 0 | 0.0 | 0.0 | 0.00 | 0.32 | 0.32 | 91 | 1010.3 |
| 20260506233603 | 46 | 0 | 0.0 | 0.0 | 0.00 | 0.32 | 0.32 | 91 | 1010.3 |
| 20260506233311 | 46 | 0 | 0.0 | 0.0 | 0.00 | 0.32 | 0.32 | 91 | 1010.3 |
| 20260506232549 | 46 | 0 | 0.0 | 0.0 | 0.00 | 0.32 | 0.32 | 91 | 1010.2 |
| 20260506232020 | 46 | 0 | 0.0 | 0.0 | 0.00 | 0.32 | 0.32 | 91 | 1010.3 |
| 20260506231525 | 46 | 0 | 0.0 | 0.0 | 0.00 | 0.32 | 0.32 | 92 | 1010.2 |
| 20260506230952 | 46 | 291 | 0.0 | 0.0 | 0.00 | 0.32 | 0.32 | 92 | 1010.3 |
| 20260506230434 | 46 | 306 | 0.0 | 0.9 | 0.00 | 0.32 | 0.32 | 92 | 1010.1 |
| 20260506225935 | 46 | 288 | 0.0 | 0.9 | 0.00 | 0.32 | 0.32 | 92 | 1010.1 |
| 20260506225420 | 46 | 0 | 0.0 | 0.9 | 0.00 | 0.32 | 0.32 | 92 | 1010.0 |
| 20260506224919 | 47 | 288 | 0.0 | 0.9 | 0.00 | 0.32 | 0.32 | 92 | 1010.0 |
| 20260506224405 | 47 | 0 | 0.0 | 0.0 | 0.00 | 0.32 | 0.32 | 92 | 1010.0 |
| 20260506223904 | 47 | 288 | 0.0 | 0.0 | 0.00 | 0.32 | 0.32 | 92 | 1010.0 |
| 20260506223405 | 47 | 0 | 0.0 | 0.0 | 0.00 | 0.32 | 0.32 | 92 | 1009.8 |
| 20260506222904 | 47 | 269 | 0.0 | 0.0 | 0.00 | 0.32 | 0.32 | 92 | 1009.9 |
| 20260506222404 | 47 | 281 | 0.0 | 0.0 | 0.00 | 0.32 | 0.32 | 92 | 1009.7 |
| 20260506222130 | 47 | 0 | 0.0 | 0.0 | 0.00 | 0.32 | 0.32 | 92 | 1009.5 |
| 20260506221404 | 47 | 0 | 0.0 | 4.3 | 0.00 | 0.32 | 0.32 | 92 | 1009.6 |
| 20260506220905 | 47 | 325 | 0.0 | 4.3 | 0.00 | 0.32 | 0.32 | 92 | 1009.6 |
| 20260506220404 | 47 | 288 | 0.0 | 0.0 | 0.00 | 0.32 | 0.32 | 93 | 1009.5 |
| 20260506215903 | 47 | 0 | 0.0 | 3.5 | 0.00 | 0.32 | 0.32 | 93 | 1009.4 |
| 20260506215402 | 47 | 292 | 0.0 | 3.5 | 0.00 | 0.32 | 0.32 | 93 | 1009.5 |
| 20260506214903 | 47 | 0 | 0.9 | 9.6 | 0.00 | 0.32 | 0.32 | 93 | 1009.5 |
| 20260506214400 | 47 | 0 | 0.9 | 9.6 | 0.00 | 0.32 | 0.32 | 93 | 1009.6 |
| 20260506213901 | 47 | 283 | 0.0 | 4.3 | 0.00 | 0.32 | 0.32 | 93 | 1009.4 |
| 20260506213359 | 47 | 0 | 0.0 | 7.0 | 0.00 | 0.32 | 0.32 | 93 | 1009.5 |
| 20260506212902 | 48 | 0 | 0.9 | 7.8 | 0.00 | 0.32 | 0.32 | 93 | 1009.4 |
| 20260506212333 | 48 | 0 | 0.0 | 7.8 | 0.00 | 0.32 | 0.32 | 93 | 1009.3 |
| 20260506211814 | 48 | 0 | 0.0 | 0.0 | 0.00 | 0.32 | 0.32 | 93 | 1009.1 |
| 20260506211311 | 48 | 0 | 0.0 | 0.9 | 0.00 | 0.32 | 0.32 | 93 | 1009.0 |
| 20260506210758 | 48 | 280 | 0.0 | 0.9 | 0.00 | 0.32 | 0.32 | 93 | 1009.0 |
| 20260506210255 | 48 | 284 | 0.0 | 0.0 | 0.00 | 0.32 | 0.32 | 94 | 1008.9 |
| 20260506205754 | 48 | 0 | 0.0 | 0.0 | 0.00 | 0.32 | 0.32 | 94 | 1008.8 |
| 20260506205255 | 48 | 0 | 0.0 | 0.0 | 0.00 | 0.32 | 0.32 | 93 | 1008.6 |
| 20260506205022 | 48 | 293 | 0.0 | 0.9 | 0.00 | 0.32 | 0.32 | 94 | 1008.7 |
| 20260506204253 | 47 | 0 | 0.0 | 0.9 | 0.00 | 0.32 | 0.32 | 93 | 1008.5 |
| 20260506203753 | 48 | 0 | 0.0 | 7.0 | 0.00 | 0.32 | 0.32 | 94 | 1008.5 |
| 20260506203732 | 48 | 0 | 0.0 | 7.0 | 0.00 | 0.32 | 0.32 | 94 | 1008.5 |
| 20260506202753 | 48 | 0 | 0.0 | 3.5 | 0.00 | 0.32 | 0.32 | 94 | 1008.4 |
| 20260506202252 | 48 | 284 | 0.9 | 7.0 | 0.01 | 0.32 | 0.32 | 93 | 1008.3 |
| 20260506201750 | 48 | 0 | 0.0 | 7.0 | 0.01 | 0.32 | 0.32 | 94 | 1008.1 |
| 20260506201247 | 48 | 0 | 0.0 | 0.0 | 0.02 | 0.32 | 0.32 | 94 | 1007.9 |
| 20260506201014 | 48 | 0 | 0.0 | 0.0 | 0.02 | 0.32 | 0.32 | 94 | 1007.7 |
| 20260506200712 | 49 | 0 | 0.0 | 0.9 | 0.02 | 0.32 | 0.32 | 94 | 1007.7 |
| 20260506195724 | 49 | 0 | 0.0 | 0.9 | 0.02 | 0.32 | 0.32 | 94 | 1007.7 |
| 20260506195222 | 49 | 304 | 0.0 | 0.0 | 0.02 | 0.32 | 0.32 | 94 | 1007.8 |
| 20260506194721 | 49 | 0 | 0.0 | 1.7 | 0.02 | 0.32 | 0.32 | 94 | 1007.8 |
| 20260506194453 | 48 | 0 | 0.0 | 1.7 | 0.02 | 0.33 | 0.32 | 94 | 1007.8 |
| 20260506193717 | 48 | 0 | 0.0 | 0.0 | 0.02 | 0.34 | 0.32 | 94 | 1007.8 |
| 20260506193217 | 48 | 0 | 0.0 | 0.9 | 0.02 | 0.34 | 0.32 | 94 | 1007.8 |
| 20260506192940 | 48 | 0 | 0.0 | 0.9 | 0.02 | 0.34 | 0.32 | 93 | 1007.9 |
| 20260506192212 | 49 | 292 | 0.0 | 0.0 | 0.01 | 0.33 | 0.31 | 93 | 1007.8 |
| 20260506191714 | 49 | 0 | 0.0 | 0.0 | 0.02 | 0.33 | 0.31 | 93 | 1007.7 |
| 20260506191435 | 49 | 0 | 0.0 | 0.9 | 0.01 | 0.32 | 0.30 | 93 | 1007.6 |
| 20260506190707 | 49 | 276 | 0.0 | 0.9 | 0.01 | 0.32 | 0.30 | 93 | 1007.5 |
| 20260506190217 | 49 | 276 | 0.0 | 0.0 | 0.01 | 0.32 | 0.30 | 93 | 1007.3 |
| 20260506190209 | 49 | 276 | 0.0 | 0.0 | 0.01 | 0.32 | 0.30 | 93 | 1007.4 |
| 20260506185403 | 49 | 276 | 0.0 | 0.0 | 0.01 | 0.32 | 0.30 | 93 | 1007.1 |
| 20260506184615 | 49 | 276 | 0.0 | 0.0 | 0.01 | 0.32 | 0.30 | 93 | 1007.2 |
| 20260506184047 | 49 | 261 | 0.0 | 0.0 | 0.01 | 0.32 | 0.30 | 93 | 1007.1 |
| 20260506183521 | 49 | 281 | 0.0 | 0.0 | 0.01 | 0.32 | 0.30 | 93 | 1007.1 |
| 20260506182956 | 49 | 265 | 0.0 | 0.0 | 0.01 | 0.32 | 0.30 | 93 | 1007.1 |
| 20260506182429 | 49 | 275 | 0.0 | 0.0 | 0.01 | 0.32 | 0.30 | 93 | 1007.1 |
| 20260506181900 | 49 | 272 | 0.0 | 0.9 | 0.00 | 0.31 | 0.29 | 93 | 1006.9 |
| 20260506181333 | 49 | 248 | 0.0 | 0.9 | 0.00 | 0.31 | 0.29 | 93 | 1006.8 |
| 20260506180810 | 50 | 280 | 0.0 | 0.0 | 0.00 | 0.31 | 0.29 | 93 | 1006.8 |
| 20260506180508 | 50 | 267 | 0.0 | 0.0 | 0.00 | 0.31 | 0.29 | 93 | 1006.6 |
| 20260506175714 | 50 | 267 | 0.0 | 0.0 | 0.00 | 0.31 | 0.29 | 93 | 1006.6 |
| 20260506175335 | 51 | 0 | 0.0 | 0.0 | 0.00 | 0.31 | 0.29 | 93 | 1006.5 |
| 20260506175219 | 50 | 286 | 0.0 | 0.0 | 0.00 | 0.31 | 0.29 | 93 | 1006.6 |
| 20260506174053 | 51 | 0 | 0.0 | 0.9 | 0.01 | 0.31 | 0.29 | 93 | 1006.3 |
| 20260506173527 | 51 | 0 | 0.0 | 0.0 | 0.01 | 0.31 | 0.29 | 93 | 1006.3 |
| 20260506173004 | 52 | 277 | 0.0 | 0.0 | 0.01 | 0.31 | 0.29 | 93 | 1006.2 |
| 20260506172503 | 52 | 286 | 0.0 | 0.0 | 0.01 | 0.31 | 0.29 | 93 | 1006.1 |
| 20260506172004 | 53 | 311 | 0.0 | 0.0 | 0.01 | 0.31 | 0.29 | 93 | 1006.0 |
| 20260506171459 | 53 | 19 | 0.0 | 0.0 | 0.01 | 0.31 | 0.29 | 93 | 1006.0 |
| 20260506171000 | 54 | 0 | 0.0 | 3.5 | 0.01 | 0.31 | 0.29 | 93 | 1005.9 |
| 20260506170459 | 54 | 0 | 0.0 | 3.5 | 0.01 | 0.31 | 0.29 | 93 | 1005.8 |
| 20260506170217 | 55 | 0 | 0.0 | 3.5 | 0.01 | 0.31 | 0.29 | 93 | 1005.6 |
| 20260506165453 | 56 | 286 | 0.0 | 3.5 | 0.01 | 0.31 | 0.29 | 93 | 1005.7 |
| 20260506164950 | 58 | 0 | 0.0 | 0.0 | 0.01 | 0.31 | 0.29 | 93 | 1005.5 |
| 20260506164450 | 59 | 338 | 0.0 | 0.0 | 0.01 | 0.31 | 0.29 | 94 | 1005.6 |
| 20260506164211 | 58 | 284 | 0.0 | 0.0 | 0.01 | 0.30 | 0.28 | 94 | 1005.6 |
| 20260506163447 | 58 | 284 | 0.0 | 0.0 | 0.01 | 0.30 | 0.28 | 94 | 1005.5 |
| 20260506162949 | 58 | 284 | 0.0 | 0.0 | 0.01 | 0.30 | 0.28 | 94 | 1005.4 |
| 20260506162449 | 58 | 298 | 0.0 | 0.0 | 0.01 | 0.30 | 0.28 | 94 | 1005.5 |
| 20260506161941 | 59 | 0 | 0.0 | 0.0 | 0.01 | 0.30 | 0.28 | 94 | 1005.4 |
| 20260506161440 | 58 | 0 | 0.0 | 0.0 | 0.01 | 0.30 | 0.28 | 94 | 1005.4 |
| 20260506160937 | 58 | 273 | 0.0 | 0.0 | 0.01 | 0.30 | 0.28 | 94 | 1005.3 |
| 20260506160438 | 58 | 273 | 0.0 | 0.0 | 0.01 | 0.30 | 0.28 | 94 | 1005.3 |
| 20260506155924 | 58 | 273 | 0.0 | 0.0 | 0.02 | 0.30 | 0.28 | 94 | 1005.5 |
| 20260506155423 | 58 | 273 | 0.0 | 0.0 | 0.03 | 0.30 | 0.28 | 94 | 1005.5 |
| 20260506154920 | 58 | 275 | 0.0 | 0.0 | 0.03 | 0.30 | 0.28 | 94 | 1005.6 |
| 20260506154417 | 58 | 275 | 0.0 | 0.0 | 0.03 | 0.30 | 0.28 | 94 | 1005.6 |
| 20260506153917 | 58 | 275 | 0.0 | 0.0 | 0.02 | 0.29 | 0.27 | 94 | 1005.6 |
| 20260506153414 | 58 | 277 | 0.0 | 0.0 | 0.03 | 0.29 | 0.27 | 94 | 1005.5 |
| 20260506152915 | 58 | 155 | 0.0 | 0.0 | 0.03 | 0.29 | 0.27 | 94 | 1005.5 |
| 20260506152650 | 58 | 244 | 0.0 | 0.0 | 0.03 | 0.29 | 0.27 | 94 | 1005.5 |
| 20260506151908 | 58 | 0 | 0.0 | 0.0 | 0.03 | 0.29 | 0.27 | 94 | 1005.5 |
| 20260506151406 | 58 | 236 | 0.0 | 0.0 | 0.04 | 0.29 | 0.27 | 94 | 1005.5 |
| 20260506150904 | 58 | 236 | 0.0 | 0.0 | 0.04 | 0.29 | 0.27 | 94 | 1005.8 |
| 20260506150403 | 58 | 136 | 0.0 | 0.0 | 0.03 | 0.28 | 0.27 | 94 | 1005.7 |
| 20260506145904 | 58 | 109 | 0.0 | 0.0 | 0.03 | 0.28 | 0.26 | 94 | 1005.6 |
| 20260506145402 | 58 | 292 | 0.0 | 0.0 | 0.02 | 0.27 | 0.26 | 94 | 1005.5 |
| 20260506145121 | 58 | 293 | 0.0 | 0.0 | 0.03 | 0.27 | 0.25 | 94 | 1005.5 |
| 20260506144345 | 58 | 0 | 0.0 | 0.0 | 0.03 | 0.27 | 0.25 | 94 | 1005.4 |
| 20260506143846 | 57 | 294 | 0.0 | 0.0 | 0.02 | 0.26 | 0.25 | 94 | 1005.4 |
| 20260506143338 | 57 | 294 | 0.0 | 0.0 | 0.03 | 0.26 | 0.24 | 94 | 1005.3 |
| 20260506143059 | 57 | 123 | 0.0 | 0.0 | 0.03 | 0.26 | 0.24 | 94 | 1005.3 |
| 20260506142337 | 57 | 76 | 0.0 | 0.0 | 0.04 | 0.26 | 0.24 | 94 | 1005.5 |
| 20260506141833 | 57 | 76 | 0.0 | 0.0 | 0.04 | 0.26 | 0.24 | 94 | 1005.6 |
| 20260506141331 | 57 | 76 | 0.0 | 0.0 | 0.04 | 0.25 | 0.23 | 94 | 1005.5 |
| 20260506140828 | 56 | 76 | 0.0 | 0.0 | 0.05 | 0.25 | 0.23 | 94 | 1005.5 |
| 20260506140327 | 56 | 76 | 0.0 | 0.0 | 0.06 | 0.25 | 0.23 | 94 | 1005.6 |
| 20260506135827 | 56 | 76 | 0.0 | 0.0 | 0.07 | 0.25 | 0.23 | 94 | 1005.7 |
| 20260506135318 | 56 | 76 | 0.0 | 0.0 | 0.08 | 0.25 | 0.23 | 94 | 1005.7 |
| 20260506134818 | 56 | 76 | 0.0 | 0.0 | 0.08 | 0.24 | 0.22 | 94 | 1005.7 |
| 20260506134317 | 55 | 76 | 0.0 | 0.0 | 0.09 | 0.24 | 0.22 | 94 | 1005.8 |
| 20260506133815 | 55 | 76 | 0.0 | 0.0 | 0.10 | 0.23 | 0.22 | 94 | 1005.8 |
| 20260506133302 | 55 | 77 | 0.0 | 0.0 | 0.11 | 0.23 | 0.21 | 94 | 1005.8 |
| 20260506132759 | 55 | 233 | 0.0 | 0.0 | 0.12 | 0.23 | 0.21 | 94 | 1005.9 |
| 20260506132257 | 55 | 233 | 0.0 | 0.0 | 0.13 | 0.22 | 0.20 | 93 | 1006.0 |
| 20260506132012 | 54 | 233 | 0.0 | 0.0 | 0.14 | 0.22 | 0.20 | 94 | 1006.2 |
| 20260506131254 | 54 | 233 | 0.0 | 0.0 | 0.13 | 0.21 | 0.19 | 94 | 1006.3 |
| 20260506130748 | 54 | 233 | 0.0 | 0.0 | 0.13 | 0.20 | 0.18 | 93 | 1006.4 |
| 20260506130246 | 54 | 234 | 0.0 | 0.0 | 0.12 | 0.20 | 0.17 | 93 | 1006.5 |
| 20260506125744 | 54 | 234 | 0.0 | 0.0 | 0.11 | 0.19 | 0.16 | 93 | 1006.6 |
| 20260506125734 | 54 | 234 | 0.0 | 0.0 | 0.10 | 0.18 | 0.15 | 93 | 1006.6 |
| 20260506124739 | 53 | 234 | 0.0 | 0.0 | 0.09 | 0.17 | 0.14 | 93 | 1006.5 |
| 20260506124237 | 53 | 155 | 0.0 | 0.0 | 0.07 | 0.15 | 0.12 | 93 | 1006.5 |
| 20260506123734 | 53 | 154 | 0.0 | 0.0 | 0.07 | 0.14 | 0.11 | 93 | 1006.5 |
| 20260506123235 | 53 | 153 | 0.0 | 0.0 | 0.06 | 0.13 | 0.10 | 93 | 1006.3 |
| 20260506122727 | 53 | 153 | 0.0 | 0.0 | 0.05 | 0.12 | 0.09 | 93 | 1006.2 |
| 20260506122228 | 53 | 153 | 0.0 | 0.0 | 0.04 | 0.10 | 0.08 | 93 | 1006.3 |
| 20260506121723 | 53 | 153 | 0.0 | 0.0 | 0.03 | 0.09 | 0.06 | 93 | 1006.3 |
| 20260506121444 | 53 | 153 | 0.0 | 0.0 | 0.03 | 0.09 | 0.06 | 93 | 1006.2 |
| 20260506120932 | 53 | 153 | 0.0 | 0.0 | 0.02 | 0.08 | 0.05 | 93 | 1006.1 |
| 20260506120210 | 53 | 153 | 0.0 | 0.0 | 0.02 | 0.08 | 0.05 | 93 | 1006.1 |
| 20260506115703 | 53 | 153 | 0.0 | 0.0 | 0.02 | 0.08 | 0.05 | 93 | 1006.0 |
| 20260506115204 | 53 | 182 | 0.0 | 0.0 | 0.02 | 0.08 | 0.05 | 93 | 1006.0 |
| 20260506114627 | 53 | 196 | 0.0 | 0.0 | 0.02 | 0.08 | 0.05 | 93 | 1006.2 |
| 20260506114057 | 53 | 205 | 0.0 | 0.0 | 0.01 | 0.07 | 0.04 | 92 | 1006.5 |
| 20260506113534 | 53 | 205 | 0.0 | 0.0 | 0.01 | 0.07 | 0.04 | 92 | 1006.7 |
| 20260506113006 | 53 | 205 | 0.0 | 0.0 | 0.01 | 0.07 | 0.04 | 92 | 1006.7 |
| 20260506112438 | 53 | 205 | 0.0 | 0.0 | 0.00 | 0.06 | 0.03 | 92 | 1006.7 |
| 20260506111913 | 52 | 205 | 0.0 | 0.0 | 0.00 | 0.07 | 0.03 | 92 | 1006.6 |
| 20260506111349 | 52 | 205 | 0.0 | 0.0 | 0.01 | 0.07 | 0.03 | 92 | 1006.6 |
| 20260506111049 | 52 | 205 | 0.0 | 0.0 | 0.01 | 0.07 | 0.03 | 92 | 1006.7 |
| 20260506110256 | 52 | 205 | 0.0 | 0.0 | 0.01 | 0.07 | 0.03 | 92 | 1006.7 |
| 20260506105739 | 53 | 205 | 0.0 | 0.0 | 0.01 | 0.07 | 0.03 | 92 | 1006.5 |
| 20260506105238 | 53 | 205 | 0.0 | 0.0 | 0.01 | 0.07 | 0.03 | 92 | 1006.5 |
| 20260506104931 | 53 | 205 | 0.0 | 0.0 | 0.01 | 0.07 | 0.03 | 92 | 1006.5 |
| 20260506104634 | 53 | 205 | 0.0 | 0.0 | 0.01 | 0.07 | 0.03 | 91 | 1006.4 |
| 20260506103616 | 53 | 205 | 0.0 | 0.0 | 0.01 | 0.07 | 0.03 | 91 | 1006.4 |
| 20260506103047 | 53 | 205 | 0.0 | 0.0 | 0.01 | 0.07 | 0.03 | 91 | 1006.5 |
| 20260506102520 | 53 | 205 | 0.0 | 0.0 | 0.01 | 0.07 | 0.03 | 91 | 1006.5 |
| 20260506102430 | 53 | 205 | 0.0 | 0.0 | 0.01 | 0.07 | 0.03 | 91 | 1006.5 |
| 20260506101425 | 53 | 205 | 0.0 | 0.0 | 0.00 | 0.06 | 0.02 | 91 | 1006.3 |
| 20260506100900 | 53 | 205 | 0.0 | 0.0 | 0.00 | 0.06 | 0.02 | 91 | 1006.2 |
| 20260506100333 | 53 | 205 | 0.0 | 0.0 | 0.00 | 0.06 | 0.02 | 91 | 1006.2 |
| 20260506095805 | 53 | 205 | 0.0 | 0.0 | 0.01 | 0.06 | 0.02 | 91 | 1006.2 |
| 20260506095238 | 53 | 205 | 0.0 | 0.0 | 0.01 | 0.06 | 0.02 | 90 | 1006.1 |
| 20260506094739 | 53 | 205 | 0.0 | 0.0 | 0.01 | 0.06 | 0.02 | 90 | 1006.2 |
| 20260506094240 | 53 | 205 | 0.0 | 0.0 | 0.01 | 0.06 | 0.02 | 90 | 1006.2 |
| 20260506093737 | 53 | 205 | 0.0 | 0.0 | 0.01 | 0.06 | 0.02 | 90 | 1006.2 |
| 20260506093235 | 53 | 205 | 0.0 | 0.0 | 0.01 | 0.06 | 0.02 | 90 | 1006.2 |
| 20260506092735 | 53 | 205 | 0.0 | 0.0 | 0.02 | 0.06 | 0.02 | 90 | 1006.3 |
| 20260506092234 | 53 | 205 | 0.0 | 0.0 | 0.02 | 0.06 | 0.02 | 90 | 1006.3 |
| 20260506091727 | 53 | 205 | 0.0 | 0.0 | 0.02 | 0.06 | 0.02 | 90 | 1006.3 |
| 20260506091226 | 53 | 205 | 0.0 | 0.0 | 0.02 | 0.06 | 0.02 | 90 | 1006.3 |
| 20260506090723 | 53 | 205 | 0.0 | 0.0 | 0.02 | 0.06 | 0.02 | 90 | 1006.4 |
| 20260506090441 | 53 | 205 | 0.0 | 0.0 | 0.01 | 0.05 | 0.01 | 90 | 1006.5 |
| 20260506085720 | 53 | 205 | 0.0 | 0.0 | 0.01 | 0.05 | 0.01 | 90 | 1006.5 |
| 20260506085217 | 53 | 205 | 0.0 | 0.0 | 0.01 | 0.05 | 0.01 | 89 | 1006.6 |
| 20260506084717 | 53 | 205 | 0.0 | 0.0 | 0.01 | 0.05 | 0.01 | 89 | 1006.6 |
| 20260506084442 | 53 | 205 | 0.0 | 0.0 | 0.01 | 0.05 | 0.01 | 89 | 1006.8 |
| 20260506083934 | 53 | 205 | 0.0 | 0.0 | 0.01 | 0.05 | 0.01 | 89 | 1006.8 |
| 20260506083437 | 53 | 205 | 0.0 | 0.0 | 0.01 | 0.05 | 0.01 | 89 | 1006.9 |
| 20260506082914 | 53 | 205 | 0.0 | 0.0 | 0.00 | 0.04 | 0.00 | 89 | 1007.1 |
| 20260506082419 | 53 | 205 | 0.0 | 0.0 | 0.00 | 0.04 | 0.00 | 89 | 1007.1 |
| 20260506081649 | 53 | 205 | 0.0 | 0.0 | 0.00 | 0.04 | 0.00 | 88 | 1007.1 |
| 20260506081147 | 53 | 205 | 0.0 | 0.0 | 0.00 | 0.04 | 0.00 | 89 | 1007.1 |
| 20260506080911 | 53 | 205 | 0.0 | 0.0 | 0.00 | 0.04 | 0.00 | 88 | 1006.9 |
| 20260506080143 | 53 | 205 | 0.0 | 0.0 | 0.00 | 0.04 | 0.00 | 88 | 1006.8 |
| 20260506073135 | 53 | 205 | 0.0 | 0.0 | 0.00 | 0.04 | 0.00 | 88 | 1006.7 |
| 20260506072632 | 53 | 205 | 0.0 | 0.0 | 0.00 | 0.04 | 0.00 | 87 | 1007.1 |
| 20260506072133 | 53 | 205 | 0.0 | 0.0 | 0.00 | 0.04 | 0.00 | 87 | 1006.9 |
| 20260506071633 | 53 | 205 | 0.0 | 0.0 | 0.00 | 0.04 | 0.00 | 87 | 1006.8 |
| 20260506071128 | 53 | 205 | 0.0 | 0.0 | 0.00 | 0.04 | 0.00 | 87 | 1006.8 |
| 20260506070626 | 53 | 205 | 0.0 | 0.0 | 0.00 | 0.04 | 0.00 | 87 | 1006.8 |
| 20260506070123 | 53 | 205 | 0.0 | 0.0 | 0.00 | 0.04 | 0.00 | 87 | 1006.8 |
| 20260506062024 | 54 | 205 | 0.0 | 0.0 | 0.00 | 0.04 | 0.00 | 87 | 1007.3 |
| 20260506061522 | 54 | 205 | 0.0 | 0.0 | 0.00 | 0.04 | 0.00 | 87 | 1007.5 |
| 20260506061021 | 54 | 205 | 0.0 | 0.0 | 0.00 | 0.04 | 0.00 | 87 | 1007.6 |